Location: Dehesa de la Cepeda
(40.6574°N, 4.3013°W)
Time: 21:12:46
(UTC+00:00)

Vanguard 2 Rocket - Pass Details

Date: 12 August 2021
Orbit: 556 x 3324 km, 32.9° (Epoch: 19 September)

Event Time Altitude Azimuth Distance (km) Brightness Sun altitude
Rises 08:09:32 0° 265° (W) 3,302 9.3 29.9°
Reaches altitude 10° 08:12:55 10° 247° (WSW) 2,087 8.4 30.5°
Maximum altitude 08:16:02 18° 202° (SSW) 1,449 8.0 31.1°
Drops below altitude 10° 08:18:49 10° 157° (SSE) 1,827 9.0 31.6°
Sets 08:21:30 0° 137° (SE) 2,732 10.0 32.1°
